contact:dominique.lefevre@mio.osupytheas.fr, maurice.libes@osupytheas.fr, didier.mallarino@osupytheas.fr
Project:EMSO http://www.emso-fr.org/EMSO-France
Depth: 2436.0 m
Title:EMSO Ligure Ouest : Data MII capteur MICROCAT
DateTime_Computer,Latitude,Longitude,Temperature,Conductivity,Pressure,DateTime_Instrument
DateTime_Computer,Latitude,Longitude,degC,S m-1,dbar,DateTime_Instrument
2021-12-15T08:43:08Z,42.805,6.029,13.3005,4.60033,2470.39,2021-12-15T10:44:37Z
2021-12-15T08:46:11Z,42.805,6.029,13.3007,4.60032,2470.366,2021-12-15T10:47:40Z
2021-12-15T08:49:15Z,42.805,6.029,13.3008,4.60033,2470.366,2021-12-15T10:50:43Z
2021-12-15T08:52:18Z,42.805,6.029,13.3006,4.60033,2470.366,2021-12-15T10:53:46Z
2021-12-15T08:55:21Z,42.805,6.029,13.3006,4.60033,2470.343,2021-12-15T10:56:49Z
2021-12-15T08:58:24Z,42.805,6.029,13.3009,4.60031,2470.366,2021-12-15T10:59:52Z
2021-12-15T09:01:27Z,42.805,6.029,13.3005,4.60034,2470.38,2021-12-15T11:02:56Z
2021-12-15T09:04:30Z,42.805,6.029,13.3007,4.60033,2470.38,2021-12-15T11:05:59Z
2021-12-15T09:07:33Z,42.805,6.029,13.3004,4.60032,2470.366,2021-12-15T11:09:02Z
2021-12-15T09:10:36Z,42.805,6.029,13.3004,4.60033,2470.39,2021-12-15T11:12:05Z
2021-12-15T09:13:40Z,42.805,6.029,13.3009,4.60031,2470.32,2021-12-15T11:15:08Z
2021-12-15T09:16:43Z,42.805,6.029,13.3006,4.60032,2470.357,2021-12-15T11:18:11Z
2021-12-15T09:19:46Z,42.805,6.029,13.3008,4.60032,2470.366,2021-12-15T11:21:14Z
2021-12-15T09:22:49Z,42.805,6.029,13.3008,4.60032,2470.39,2021-12-15T11:24:17Z
2021-12-15T09:25:52Z,42.805,6.029,13.3008,4.60033,2470.334,2021-12-15T11:27:21Z
2021-12-15T09:28:55Z,42.805,6.029,13.3009,4.60032,2470.357,2021-12-15T11:30:24Z
2021-12-15T09:31:58Z,42.805,6.029,13.3006,4.60031,2470.357,2021-12-15T11:33:27Z
2021-12-15T09:35:01Z,42.805,6.029,13.3007,4.60033,2470.32,2021-12-15T11:36:30Z
2021-12-15T09:38:05Z,42.805,6.029,13.3006,4.60031,2470.39,2021-12-15T11:39:33Z
2021-12-15T09:41:08Z,42.805,6.029,13.3010,4.60034,2470.32,2021-12-15T11:42:36Z
2021-12-15T09:44:11Z,42.805,6.029,13.3007,4.60032,2470.343,2021-12-15T11:45:39Z
2021-12-15T09:47:14Z,42.805,6.029,13.3006,4.60030,2470.297,2021-12-15T11:48:42Z
2021-12-15T09:50:17Z,42.805,6.029,13.3008,4.60031,2470.38,2021-12-15T11:51:46Z
2021-12-15T09:53:20Z,42.805,6.029,13.3005,4.60031,2470.343,2021-12-15T11:54:49Z
2021-12-15T09:56:23Z,42.805,6.029,13.3004,4.60033,2470.343,2021-12-15T11:57:52Z
2021-12-15T09:59:26Z,42.805,6.029,13.3008,4.60032,2470.32,2021-12-15T12:00:55Z
2021-12-15T10:02:30Z,42.805,6.029,13.3011,4.60031,2470.343,2021-12-15T12:03:58Z
2021-12-15T10:05:33Z,42.805,6.029,13.3009,4.60033,2470.366,2021-12-15T12:07:01Z
2021-12-15T10:08:36Z,42.805,6.029,13.3006,4.60032,2470.343,2021-12-15T12:10:04Z
2021-12-15T10:11:39Z,42.805,6.029,13.3004,4.60032,2470.38,2021-12-15T12:13:07Z
2021-12-15T10:14:42Z,42.805,6.029,13.3007,4.60032,2470.32,2021-12-15T12:16:11Z
2021-12-15T10:17:45Z,42.805,6.029,13.3006,4.60031,2470.343,2021-12-15T12:19:14Z
2021-12-15T10:20:48Z,42.805,6.029,13.3004,4.60031,2470.38,2021-12-15T12:22:17Z
2021-12-15T10:23:51Z,42.805,6.029,13.3004,4.60031,2470.334,2021-12-15T12:25:20Z
2021-12-15T10:26:55Z,42.805,6.029,13.3008,4.60031,2470.357,2021-12-15T12:28:23Z
2021-12-15T10:29:58Z,42.805,6.029,13.3006,4.60031,2470.357,2021-12-15T12:31:26Z
2021-12-15T10:33:01Z,42.805,6.029,13.3008,4.60031,2470.32,2021-12-15T12:34:29Z
2021-12-15T10:36:04Z,42.805,6.029,13.3005,4.60030,2470.357,2021-12-15T12:37:32Z
2021-12-15T10:39:07Z,42.805,6.029,13.3005,4.60030,2470.343,2021-12-15T12:40:36Z
2021-12-15T10:42:10Z,42.805,6.029,13.3000,4.60031,2470.32,2021-12-15T12:43:39Z
2021-12-15T10:45:13Z,42.805,6.029,13.3002,4.60031,2470.343,2021-12-15T12:46:42Z
2021-12-15T10:48:16Z,42.805,6.029,13.3006,4.60031,2470.32,2021-12-15T12:49:45Z
2021-12-15T10:51:20Z,42.805,6.029,13.3004,4.60031,2470.334,2021-12-15T12:52:48Z
2021-12-15T10:54:23Z,42.805,6.029,13.3006,4.60029,2470.32,2021-12-15T12:55:51Z
2021-12-15T10:57:26Z,42.805,6.029,13.3003,4.60031,2470.31,2021-12-15T12:58:54Z
2021-12-15T11:00:29Z,42.805,6.029,13.3004,4.60030,2470.334,2021-12-15T13:01:57Z
2021-12-15T11:03:32Z,42.805,6.029,13.3006,4.60030,2470.32,2021-12-15T13:05:01Z
2021-12-15T11:06:35Z,42.805,6.029,13.3004,4.60029,2470.297,2021-12-15T13:08:04Z
2021-12-15T11:09:38Z,42.805,6.029,13.3005,4.60030,2470.297,2021-12-15T13:11:07Z
2021-12-15T11:12:42Z,42.805,6.029,13.3005,4.60029,2470.32,2021-12-15T13:14:10Z
2021-12-15T11:15:45Z,42.805,6.029,13.3004,4.60029,2470.32,2021-12-15T13:17:13Z
2021-12-15T11:18:48Z,42.805,6.029,13.3006,4.60031,2470.343,2021-12-15T13:20:16Z
2021-12-15T11:21:51Z,42.805,6.029,13.3001,4.60028,2470.32,2021-12-15T13:23:19Z
2021-12-15T11:24:54Z,42.805,6.029,13.3003,4.60029,2470.297,2021-12-15T13:26:23Z
2021-12-15T11:27:57Z,42.805,6.029,13.3003,4.60028,2470.343,2021-12-15T13:29:26Z
2021-12-15T11:31:00Z,42.805,6.029,13.3005,4.60029,2470.297,2021-12-15T13:32:29Z
2021-12-15T11:34:03Z,42.805,6.029,13.3004,4.60029,2470.334,2021-12-15T13:35:32Z
2021-12-15T11:37:07Z,42.805,6.029,13.3002,4.60029,2470.334,2021-12-15T13:38:35Z
2021-12-15T11:40:10Z,42.805,6.029,13.3007,4.60029,2470.343,2021-12-15T13:41:38Z
2021-12-15T11:43:13Z,42.805,6.029,13.3003,4.60029,2470.297,2021-12-15T13:44:41Z
2021-12-15T11:46:16Z,42.805,6.029,13.3003,4.60029,2470.31,2021-12-15T13:47:44Z
2021-12-15T11:49:19Z,42.805,6.029,13.3006,4.60029,2470.297,2021-12-15T13:50:48Z
2021-12-15T11:52:22Z,42.805,6.029,13.2999,4.60029,2470.31,2021-12-15T13:53:51Z
2021-12-15T11:55:25Z,42.805,6.029,13.3003,4.60027,2470.32,2021-12-15T13:56:54Z
2021-12-15T11:58:28Z,42.805,6.029,13.3001,4.60027,2470.31,2021-12-15T13:59:57Z
2021-12-15T12:01:32Z,42.805,6.029,13.3002,4.60027,2470.32,2021-12-15T14:03:00Z
2021-12-15T12:04:35Z,42.805,6.029,13.3002,4.60029,2470.334,2021-12-15T14:06:03Z
2021-12-15T12:07:38Z,42.805,6.029,13.3004,4.60029,2470.334,2021-12-15T14:09:06Z
2021-12-15T12:10:41Z,42.805,6.029,13.3003,4.60029,2470.297,2021-12-15T14:12:09Z
2021-12-15T12:13:44Z,42.805,6.029,13.3001,4.60028,2470.334,2021-12-15T14:15:13Z
2021-12-15T12:16:47Z,42.805,6.029,13.3004,4.60029,2470.32,2021-12-15T14:18:16Z
2021-12-15T12:19:50Z,42.805,6.029,13.3002,4.60030,2470.32,2021-12-15T14:21:19Z
2021-12-15T12:22:53Z,42.805,6.029,13.3001,4.60029,2470.31,2021-12-15T14:24:22Z
2021-12-15T12:25:57Z,42.805,6.029,13.3006,4.60029,2470.297,2021-12-15T14:27:25Z
2021-12-15T12:29:00Z,42.805,6.029,13.3004,4.60028,2470.32,2021-12-15T14:30:28Z
2021-12-15T12:32:03Z,42.805,6.029,13.3004,4.60029,2470.306,2021-12-15T14:33:31Z
2021-12-15T12:35:06Z,42.805,6.029,13.3004,4.60028,2470.287,2021-12-15T14:36:34Z
2021-12-15T12:38:09Z,42.805,6.029,13.3005,4.60028,2470.31,2021-12-15T14:39:38Z
2021-12-15T12:41:12Z,42.805,6.029,13.3005,4.60027,2470.32,2021-12-15T14:42:41Z
2021-12-15T12:44:15Z,42.805,6.029,13.3000,4.60029,2470.334,2021-12-15T14:45:44Z
2021-12-15T12:47:18Z,42.805,6.029,13.3000,4.60027,2470.343,2021-12-15T14:48:47Z
2021-12-15T12:50:22Z,42.805,6.029,13.2998,4.60028,2470.31,2021-12-15T14:51:50Z
2021-12-15T12:53:25Z,42.805,6.029,13.3004,4.60027,2470.32,2021-12-15T14:54:53Z
2021-12-15T12:56:28Z,42.805,6.029,13.3006,4.60027,2470.343,2021-12-15T14:57:56Z
2021-12-15T12:59:31Z,42.805,6.029,13.3003,4.60027,2470.32,2021-12-15T15:01:00Z
2021-12-15T13:02:34Z,42.805,6.029,13.3002,4.60028,2470.334,2021-12-15T15:04:03Z
2021-12-15T13:05:37Z,42.805,6.029,13.3004,4.60027,2470.343,2021-12-15T15:07:06Z
2021-12-15T13:08:40Z,42.805,6.029,13.3001,4.60027,2470.334,2021-12-15T15:10:09Z
2021-12-15T13:11:44Z,42.805,6.029,13.3001,4.60027,2470.343,2021-12-15T15:13:12Z
2021-12-15T13:14:47Z,42.805,6.029,13.3000,4.60027,2470.32,2021-12-15T15:16:15Z
2021-12-15T13:17:50Z,42.805,6.029,13.3001,4.60027,2470.343,2021-12-15T15:19:18Z
2021-12-15T13:20:53Z,42.805,6.029,13.3006,4.60028,2470.334,2021-12-15T15:22:21Z
2021-12-15T13:23:56Z,42.805,6.029,13.3006,4.60026,2470.32,2021-12-15T15:25:25Z
2021-12-15T13:26:59Z,42.805,6.029,13.3000,4.60027,2470.32,2021-12-15T15:28:28Z
2021-12-15T13:30:02Z,42.805,6.029,13.3006,4.60028,2470.32,2021-12-15T15:31:31Z
2021-12-15T13:33:05Z,42.805,6.029,13.3001,4.60027,2470.32,2021-12-15T15:34:34Z
2021-12-15T13:36:09Z,42.805,6.029,13.3004,4.60026,2470.297,2021-12-15T15:37:37Z
2021-12-15T13:39:12Z,42.805,6.029,13.3004,4.60027,2470.357,2021-12-15T15:40:40Z
2021-12-15T13:42:15Z,42.805,6.029,13.3004,4.60027,2470.297,2021-12-15T15:43:43Z
2021-12-15T13:45:18Z,42.805,6.029,13.3000,4.60026,2470.357,2021-12-15T15:46:46Z
2021-12-15T13:48:21Z,42.805,6.029,13.3007,4.60026,2470.343,2021-12-15T15:49:50Z
2021-12-15T13:51:24Z,42.805,6.029,13.2998,4.60026,2470.343,2021-12-15T15:52:53Z
2021-12-15T13:54:27Z,42.805,6.029,13.3000,4.60027,2470.366,2021-12-15T15:55:56Z
2021-12-15T13:57:30Z,42.805,6.029,13.2999,4.60027,2470.366,2021-12-15T15:58:59Z
2021-12-15T14:00:34Z,42.805,6.029,13.3005,4.60028,2470.343,2021-12-15T16:02:02Z
2021-12-15T14:03:37Z,42.805,6.029,13.2999,4.60027,2470.38,2021-12-15T16:05:05Z
2021-12-15T14:06:40Z,42.805,6.029,13.3002,4.60028,2470.366,2021-12-15T16:08:08Z
2021-12-15T14:09:43Z,42.805,6.029,13.2998,4.60027,2470.366,2021-12-15T16:11:11Z
2021-12-15T14:12:46Z,42.805,6.029,13.3000,4.60027,2470.357,2021-12-15T16:14:15Z
2021-12-15T14:15:49Z,42.805,6.029,13.3006,4.60026,2470.366,2021-12-15T16:17:18Z
2021-12-15T14:18:52Z,42.805,6.029,13.3002,4.60027,2470.343,2021-12-15T16:20:21Z
2021-12-15T14:21:55Z,42.805,6.029,13.3002,4.60027,2470.357,2021-12-15T16:23:24Z
2021-12-15T14:24:59Z,42.805,6.029,13.3006,4.60028,2470.404,2021-12-15T16:26:27Z
2021-12-15T14:28:02Z,42.805,6.029,13.3000,4.60026,2470.39,2021-12-15T16:29:30Z
2021-12-15T14:31:05Z,42.805,6.029,13.3004,4.60027,2470.366,2021-12-15T16:32:33Z
2021-12-15T14:34:08Z,42.805,6.029,13.3001,4.60028,2470.366,2021-12-15T16:35:36Z
2021-12-15T14:37:11Z,42.805,6.029,13.3004,4.60027,2470.427,2021-12-15T16:38:40Z
2021-12-15T14:40:14Z,42.805,6.029,13.3004,4.60027,2470.366,2021-12-15T16:41:43Z
2021-12-15T14:43:17Z,42.805,6.029,13.3002,4.60028,2470.366,2021-12-15T16:44:46Z
2021-12-15T14:46:21Z,42.805,6.029,13.3004,4.60028,2470.39,2021-12-15T16:47:49Z
2021-12-15T14:49:24Z,42.805,6.029,13.3004,4.60027,2470.404,2021-12-15T16:50:52Z
2021-12-15T14:52:27Z,42.805,6.029,13.3004,4.60029,2470.366,2021-12-15T16:53:55Z
2021-12-15T14:55:30Z,42.805,6.029,13.3004,4.60028,2470.38,2021-12-15T16:56:58Z
2021-12-15T14:58:33Z,42.805,6.029,13.3006,4.60028,2470.413,2021-12-15T17:00:02Z
2021-12-15T15:01:36Z,42.805,6.029,13.2999,4.60027,2470.404,2021-12-15T17:03:05Z
2021-12-15T15:04:39Z,42.805,6.029,13.3003,4.60027,2470.366,2021-12-15T17:06:08Z
2021-12-15T15:07:42Z,42.805,6.029,13.3002,4.60028,2470.366,2021-12-15T17:09:11Z
2021-12-15T15:10:46Z,42.805,6.029,13.3003,4.60029,2470.404,2021-12-15T17:12:14Z
2021-12-15T15:13:49Z,42.805,6.029,13.3004,4.60027,2470.427,2021-12-15T17:15:17Z
2021-12-15T15:16:52Z,42.805,6.029,13.3005,4.60028,2470.376,2021-12-15T17:18:20Z
2021-12-15T15:19:55Z,42.805,6.029,13.3004,4.60029,2470.376,2021-12-15T17:21:23Z
2021-12-15T15:22:58Z,42.805,6.029,13.3006,4.60028,2470.39,2021-12-15T17:24:26Z
2021-12-15T15:26:01Z,42.805,6.029,13.3003,4.60028,2470.39,2021-12-15T17:27:30Z
2021-12-15T15:29:04Z,42.805,6.029,13.3003,4.60028,2470.39,2021-12-15T17:30:33Z
2021-12-15T15:32:07Z,42.805,6.029,13.3002,4.60027,2470.39,2021-12-15T17:33:36Z
2021-12-15T15:35:11Z,42.805,6.029,13.3001,4.60028,2470.413,2021-12-15T17:36:39Z
2021-12-15T15:38:14Z,42.805,6.029,13.3002,4.60028,2470.45,2021-12-15T17:39:42Z
2021-12-15T15:41:17Z,42.805,6.029,13.3004,4.60028,2470.427,2021-12-15T17:42:45Z
2021-12-15T15:44:20Z,42.805,6.029,13.3002,4.60028,2470.39,2021-12-15T17:45:48Z
2021-12-15T15:47:23Z,42.805,6.029,13.3004,4.60029,2470.427,2021-12-15T17:48:52Z
2021-12-15T15:50:26Z,42.805,6.029,13.3006,4.60027,2470.413,2021-12-15T17:51:55Z
2021-12-15T15:53:29Z,42.805,6.029,13.3001,4.60028,2470.45,2021-12-15T17:54:58Z
2021-12-15T15:56:32Z,42.805,6.029,13.3003,4.60027,2470.437,2021-12-15T17:58:01Z
2021-12-15T15:59:36Z,42.805,6.029,13.3004,4.60029,2470.437,2021-12-15T18:01:04Z
2021-12-15T16:02:39Z,42.805,6.029,13.3005,4.60027,2470.413,2021-12-15T18:04:07Z
2021-12-15T16:05:42Z,42.805,6.029,13.2997,4.60029,2470.437,2021-12-15T18:07:10Z
2021-12-15T16:08:45Z,42.805,6.029,13.3005,4.60027,2470.45,2021-12-15T18:10:13Z
2021-12-15T16:11:48Z,42.805,6.029,13.3001,4.60026,2470.437,2021-12-15T18:13:17Z
2021-12-15T16:14:51Z,42.805,6.029,13.3004,4.60027,2470.437,2021-12-15T18:16:20Z
2021-12-15T16:17:54Z,42.805,6.029,13.3001,4.60027,2470.427,2021-12-15T18:19:23Z
2021-12-15T16:20:58Z,42.805,6.029,13.3006,4.60026,2470.437,2021-12-15T18:22:26Z
2021-12-15T16:24:01Z,42.805,6.029,13.3004,4.60026,2470.404,2021-12-15T18:25:29Z
2021-12-15T16:27:04Z,42.805,6.029,13.3004,4.60027,2470.437,2021-12-15T18:28:32Z
2021-12-15T16:30:07Z,42.805,6.029,13.3003,4.60026,2470.474,2021-12-15T18:31:35Z
2021-12-15T16:33:10Z,42.805,6.029,13.3003,4.60028,2470.437,2021-12-15T18:34:38Z
2021-12-15T16:36:13Z,42.805,6.029,13.3002,4.60026,2470.413,2021-12-15T18:37:42Z
2021-12-15T16:39:16Z,42.805,6.029,13.3002,4.60028,2470.437,2021-12-15T18:40:45Z
2021-12-15T16:42:19Z,42.805,6.029,13.3002,4.60026,2470.45,2021-12-15T18:43:48Z
2021-12-15T16:45:23Z,42.805,6.029,13.3000,4.60027,2470.45,2021-12-15T18:46:51Z
2021-12-15T16:48:26Z,42.805,6.029,13.3004,4.60027,2470.437,2021-12-15T18:49:54Z
2021-12-15T16:51:29Z,42.805,6.029,13.3005,4.60026,2470.46,2021-12-15T18:52:57Z
2021-12-15T16:54:32Z,42.805,6.029,13.3004,4.60026,2470.46,2021-12-15T18:56:00Z
2021-12-15T16:57:35Z,42.805,6.029,13.3000,4.60025,2470.45,2021-12-15T18:59:03Z
2021-12-15T17:00:38Z,42.805,6.029,13.3005,4.60026,2470.45,2021-12-15T19:02:07Z
2021-12-15T17:03:41Z,42.805,6.029,13.3002,4.60027,2470.45,2021-12-15T19:05:10Z
2021-12-15T17:06:44Z,42.805,6.029,13.2998,4.60026,2470.46,2021-12-15T19:08:13Z
2021-12-15T17:09:48Z,42.805,6.029,13.3004,4.60026,2470.474,2021-12-15T19:11:16Z
2021-12-15T17:12:51Z,42.805,6.029,13.3000,4.60026,2470.46,2021-12-15T19:14:19Z
2021-12-15T17:15:54Z,42.805,6.029,13.2997,4.60025,2470.437,2021-12-15T19:17:22Z
2021-12-15T17:18:57Z,42.805,6.029,13.3001,4.60026,2470.46,2021-12-15T19:20:25Z
2021-12-15T17:22:00Z,42.805,6.029,13.3000,4.60026,2470.474,2021-12-15T19:23:29Z
2021-12-15T17:25:03Z,42.805,6.029,13.3000,4.60026,2470.413,2021-12-15T19:26:32Z
2021-12-15T17:28:06Z,42.805,6.029,13.3001,4.60026,2470.399,2021-12-15T19:29:35Z
2021-12-15T17:31:09Z,42.805,6.029,13.3000,4.60026,2470.46,2021-12-15T19:32:38Z
2021-12-15T17:34:13Z,42.805,6.029,13.2998,4.60025,2470.46,2021-12-15T19:35:41Z
2021-12-15T17:37:16Z,42.805,6.029,13.3002,4.60026,2470.45,2021-12-15T19:38:44Z
2021-12-15T17:40:19Z,42.805,6.029,13.3000,4.60026,2470.46,2021-12-15T19:41:47Z
2021-12-15T17:43:22Z,42.805,6.029,13.3002,4.60026,2470.437,2021-12-15T19:44:50Z
2021-12-15T17:46:25Z,42.805,6.029,13.3003,4.60026,2470.46,2021-12-15T19:47:54Z
2021-12-15T17:49:28Z,42.805,6.029,13.3004,4.60026,2470.45,2021-12-15T19:50:57Z
2021-12-15T17:52:31Z,42.805,6.029,13.3002,4.60026,2470.413,2021-12-15T19:54:00Z
2021-12-15T17:55:34Z,42.805,6.029,13.3000,4.60026,2470.45,2021-12-15T19:57:03Z
2021-12-15T17:58:38Z,42.805,6.029,13.2999,4.60026,2470.437,2021-12-15T20:00:06Z
2021-12-15T18:01:41Z,42.805,6.029,13.3002,4.60024,2470.446,2021-12-15T20:03:09Z
2021-12-15T18:04:44Z,42.805,6.029,13.3002,4.60026,2470.427,2021-12-15T20:06:12Z
2021-12-15T18:07:47Z,42.805,6.029,13.3000,4.60026,2470.474,2021-12-15T20:09:15Z
2021-12-15T18:10:50Z,42.805,6.029,13.3001,4.60025,2470.45,2021-12-15T20:12:19Z
2021-12-15T18:13:53Z,42.805,6.029,13.3002,4.60025,2470.437,2021-12-15T20:15:22Z
2021-12-15T18:16:56Z,42.805,6.029,13.2998,4.60024,2470.45,2021-12-15T20:18:25Z
2021-12-15T18:19:59Z,42.805,6.029,13.2999,4.60024,2470.46,2021-12-15T20:21:28Z
2021-12-15T18:23:03Z,42.805,6.029,13.2999,4.60024,2470.474,2021-12-15T20:24:31Z
2021-12-15T18:26:06Z,42.805,6.029,13.2998,4.60024,2470.46,2021-12-15T20:27:34Z
2021-12-15T18:29:09Z,42.805,6.029,13.2997,4.60025,2470.45,2021-12-15T20:30:37Z
2021-12-15T18:32:12Z,42.805,6.029,13.2998,4.60022,2470.45,2021-12-15T20:33:40Z
2021-12-15T18:35:15Z,42.805,6.029,13.3001,4.60023,2470.46,2021-12-15T20:36:44Z
2021-12-15T18:38:18Z,42.805,6.029,13.3000,4.60024,2470.413,2021-12-15T20:39:47Z
2021-12-15T18:41:21Z,42.805,6.029,13.3000,4.60023,2470.497,2021-12-15T20:42:50Z
2021-12-15T18:44:25Z,42.805,6.029,13.2998,4.60024,2470.437,2021-12-15T20:45:53Z
2021-12-15T18:47:28Z,42.805,6.029,13.2998,4.60023,2470.45,2021-12-15T20:48:56Z
2021-12-15T18:50:31Z,42.805,6.029,13.2999,4.60024,2470.474,2021-12-15T20:51:59Z
2021-12-15T18:53:34Z,42.805,6.029,13.3000,4.60023,2470.46,2021-12-15T20:55:02Z
2021-12-15T18:56:37Z,42.805,6.029,13.2998,4.60024,2470.437,2021-12-15T20:58:06Z
2021-12-15T18:59:40Z,42.805,6.029,13.3000,4.60024,2470.404,2021-12-15T21:01:09Z
2021-12-15T19:02:43Z,42.805,6.029,13.2998,4.60024,2470.437,2021-12-15T21:04:12Z
2021-12-15T19:05:46Z,42.805,6.029,13.2999,4.60024,2470.413,2021-12-15T21:07:15Z
2021-12-15T19:08:50Z,42.805,6.029,13.2998,4.60022,2470.413,2021-12-15T21:10:18Z
2021-12-15T19:11:53Z,42.805,6.029,13.2996,4.60021,2470.413,2021-12-15T21:13:21Z
2021-12-15T19:14:56Z,42.805,6.029,13.2995,4.60022,2470.437,2021-12-15T21:16:24Z
2021-12-15T19:17:59Z,42.805,6.029,13.2999,4.60023,2470.413,2021-12-15T21:19:27Z
2021-12-15T19:21:02Z,42.805,6.029,13.2999,4.60023,2470.413,2021-12-15T21:22:31Z
2021-12-15T19:24:05Z,42.805,6.029,13.2997,4.60022,2470.413,2021-12-15T21:25:34Z
2021-12-15T19:27:08Z,42.805,6.029,13.2998,4.60021,2470.427,2021-12-15T21:28:37Z
2021-12-15T19:30:11Z,42.805,6.029,13.2999,4.60022,2470.413,2021-12-15T21:31:40Z
2021-12-15T19:33:15Z,42.805,6.029,13.3000,4.60024,2470.413,2021-12-15T21:34:43Z
2021-12-15T19:36:18Z,42.805,6.029,13.2996,4.60023,2470.404,2021-12-15T21:37:46Z
2021-12-15T19:39:21Z,42.805,6.029,13.2998,4.60023,2470.404,2021-12-15T21:40:49Z
2021-12-15T19:42:24Z,42.805,6.029,13.2997,4.60022,2470.413,2021-12-15T21:43:52Z
2021-12-15T19:45:27Z,42.805,6.029,13.2998,4.60021,2470.427,2021-12-15T21:46:56Z
2021-12-15T19:48:30Z,42.805,6.029,13.3000,4.60022,2470.427,2021-12-15T21:49:59Z
2021-12-15T19:51:33Z,42.805,6.029,13.2998,4.60021,2470.437,2021-12-15T21:53:02Z
2021-12-15T19:54:36Z,42.805,6.029,13.2997,4.60022,2470.427,2021-12-15T21:56:05Z
2021-12-15T19:57:40Z,42.805,6.029,13.3000,4.60022,2470.39,2021-12-15T21:59:08Z
2021-12-15T20:00:43Z,42.805,6.029,13.2998,4.60021,2470.39,2021-12-15T22:02:11Z
2021-12-15T20:03:46Z,42.805,6.029,13.2996,4.60022,2470.427,2021-12-15T22:05:14Z
2021-12-15T20:06:49Z,42.805,6.029,13.3000,4.60021,2470.427,2021-12-15T22:08:17Z
2021-12-15T20:09:52Z,42.805,6.029,13.3000,4.60022,2470.366,2021-12-15T22:11:21Z
2021-12-15T20:12:55Z,42.805,6.029,13.3002,4.60022,2470.413,2021-12-15T22:14:24Z
2021-12-15T20:15:58Z,42.805,6.029,13.2999,4.60022,2470.39,2021-12-15T22:17:27Z
2021-12-15T20:19:02Z,42.805,6.029,13.2998,4.60023,2470.39,2021-12-15T22:20:30Z
2021-12-15T20:22:05Z,42.805,6.029,13.2998,4.60022,2470.38,2021-12-15T22:23:33Z
2021-12-15T20:25:08Z,42.805,6.029,13.2998,4.60021,2470.39,2021-12-15T22:26:36Z
2021-12-15T20:28:11Z,42.805,6.029,13.3000,4.60022,2470.39,2021-12-15T22:29:39Z
2021-12-15T20:31:14Z,42.805,6.029,13.2998,4.60021,2470.366,2021-12-15T22:32:42Z
2021-12-15T20:34:17Z,42.805,6.029,13.2998,4.60021,2470.39,2021-12-15T22:35:46Z
2021-12-15T20:37:20Z,42.805,6.029,13.2993,4.60021,2470.38,2021-12-15T22:38:49Z
2021-12-15T20:40:23Z,42.805,6.029,13.2996,4.60021,2470.413,2021-12-15T22:41:52Z
2021-12-15T20:43:27Z,42.805,6.029,13.3000,4.60022,2470.38,2021-12-15T22:44:55Z
2021-12-15T20:46:30Z,42.805,6.029,13.2995,4.60021,2470.343,2021-12-15T22:47:58Z
2021-12-15T20:49:33Z,42.805,6.029,13.2998,4.60022,2470.343,2021-12-15T22:51:01Z
2021-12-15T20:52:36Z,42.805,6.029,13.2998,4.60022,2470.357,2021-12-15T22:54:04Z
2021-12-15T20:55:39Z,42.805,6.029,13.2995,4.60021,2470.366,2021-12-15T22:57:08Z
2021-12-15T20:58:42Z,42.805,6.029,13.2997,4.60022,2470.38,2021-12-15T23:00:11Z
2021-12-15T21:01:45Z,42.805,6.029,13.3000,4.60023,2470.343,2021-12-15T23:03:14Z
2021-12-15T21:04:48Z,42.805,6.029,13.3000,4.60021,2470.357,2021-12-15T23:06:17Z
2021-12-15T21:07:52Z,42.805,6.029,13.2999,4.60022,2470.357,2021-12-15T23:09:20Z
2021-12-15T21:10:55Z,42.805,6.029,13.2996,4.60021,2470.357,2021-12-15T23:12:23Z
2021-12-15T21:13:58Z,42.805,6.029,13.2998,4.60023,2470.366,2021-12-15T23:15:26Z
2021-12-15T21:17:01Z,42.805,6.029,13.2996,4.60021,2470.366,2021-12-15T23:18:29Z
2021-12-15T21:20:04Z,42.805,6.029,13.2998,4.60021,2470.343,2021-12-15T23:21:33Z
2021-12-15T21:23:07Z,42.805,6.029,13.2996,4.60022,2470.366,2021-12-15T23:24:36Z
2021-12-15T21:26:10Z,42.805,6.029,13.2995,4.60022,2470.343,2021-12-15T23:27:39Z
2021-12-15T21:29:13Z,42.805,6.029,13.2995,4.60021,2470.32,2021-12-15T23:30:42Z
2021-12-15T21:32:17Z,42.805,6.029,13.2997,4.60021,2470.357,2021-12-15T23:33:45Z
2021-12-15T21:35:20Z,42.805,6.029,13.2996,4.60022,2470.38,2021-12-15T23:36:48Z
2021-12-15T21:38:23Z,42.805,6.029,13.2994,4.60021,2470.334,2021-12-15T23:39:51Z
2021-12-15T21:41:26Z,42.805,6.029,13.3000,4.60023,2470.366,2021-12-15T23:42:55Z
2021-12-15T21:44:29Z,42.805,6.029,13.2996,4.60023,2470.38,2021-12-15T23:45:58Z
2021-12-15T21:47:32Z,42.805,6.029,13.2998,4.60022,2470.343,2021-12-15T23:49:01Z
2021-12-15T21:50:35Z,42.805,6.029,13.2999,4.60022,2470.32,2021-12-15T23:52:04Z
2021-12-15T21:53:39Z,42.805,6.029,13.2998,4.60021,2470.334,2021-12-15T23:55:07Z
2021-12-15T21:56:42Z,42.805,6.029,13.2996,4.60022,2470.343,2021-12-15T23:58:10Z
2021-12-15T21:59:45Z,42.805,6.029,13.2996,4.60022,2470.343,2021-12-16T00:01:13Z
2021-12-15T22:02:48Z,42.805,6.029,13.3000,4.60021,2470.343,2021-12-16T00:04:16Z
2021-12-15T22:05:51Z,42.805,6.029,13.2998,4.60021,2470.32,2021-12-16T00:07:20Z
2021-12-15T22:08:54Z,42.805,6.029,13.2998,4.60022,2470.32,2021-12-16T00:10:23Z
2021-12-15T22:11:57Z,42.805,6.029,13.2997,4.60021,2470.31,2021-12-16T00:13:26Z
2021-12-15T22:15:00Z,42.805,6.029,13.2999,4.60021,2470.297,2021-12-16T00:16:29Z
2021-12-15T22:18:04Z,42.805,6.029,13.2998,4.60023,2470.343,2021-12-16T00:19:32Z
2021-12-15T22:21:07Z,42.805,6.029,13.3000,4.60022,2470.32,2021-12-16T00:22:35Z
2021-12-15T22:24:10Z,42.805,6.029,13.2998,4.60024,2470.343,2021-12-16T00:25:38Z
2021-12-15T22:27:13Z,42.805,6.029,13.2998,4.60021,2470.32,2021-12-16T00:28:41Z
2021-12-15T22:30:16Z,42.805,6.029,13.2996,4.60022,2470.32,2021-12-16T00:31:45Z
2021-12-15T22:33:19Z,42.805,6.029,13.2998,4.60021,2470.343,2021-12-16T00:34:48Z
2021-12-15T22:36:22Z,42.805,6.029,13.2998,4.60022,2470.32,2021-12-16T00:37:51Z
2021-12-15T22:39:25Z,42.805,6.029,13.3000,4.60022,2470.334,2021-12-16T00:40:54Z
2021-12-15T22:42:29Z,42.805,6.029,13.3000,4.60021,2470.297,2021-12-16T00:43:57Z
2021-12-15T22:45:32Z,42.805,6.029,13.3000,4.60021,2470.297,2021-12-16T00:47:00Z
2021-12-15T22:48:35Z,42.805,6.029,13.2996,4.60021,2470.334,2021-12-16T00:50:03Z
2021-12-15T22:51:38Z,42.805,6.029,13.3002,4.60023,2470.31,2021-12-16T00:53:06Z
2021-12-15T22:54:41Z,42.805,6.029,13.3000,4.60021,2470.31,2021-12-16T00:56:10Z
2021-12-15T22:57:44Z,42.805,6.029,13.2994,4.60023,2470.31,2021-12-16T00:59:13Z
2021-12-15T23:00:47Z,42.805,6.029,13.2998,4.60023,2470.273,2021-12-16T01:02:16Z
2021-12-15T23:03:50Z,42.805,6.029,13.2999,4.60022,2470.297,2021-12-16T01:05:19Z
2021-12-15T23:06:53Z,42.805,6.029,13.3002,4.60023,2470.297,2021-12-16T01:08:22Z
2021-12-15T23:09:57Z,42.805,6.029,13.2996,4.60021,2470.273,2021-12-16T01:11:25Z
2021-12-15T23:13:00Z,42.805,6.029,13.2998,4.60022,2470.31,2021-12-16T01:14:28Z
2021-12-15T23:16:03Z,42.805,6.029,13.2999,4.60022,2470.297,2021-12-16T01:17:31Z
2021-12-15T23:19:06Z,42.805,6.029,13.2996,4.60022,2470.297,2021-12-16T01:20:35Z
2021-12-15T23:22:09Z,42.805,6.029,13.2998,4.60021,2470.31,2021-12-16T01:23:38Z
2021-12-15T23:25:12Z,42.805,6.029,13.2994,4.60023,2470.297,2021-12-16T01:26:41Z
2021-12-15T23:28:15Z,42.805,6.029,13.2999,4.60021,2470.31,2021-12-16T01:29:44Z
2021-12-15T23:31:18Z,42.805,6.029,13.2996,4.60021,2470.273,2021-12-16T01:32:47Z
2021-12-15T23:34:22Z,42.805,6.029,13.2996,4.60022,2470.31,2021-12-16T01:35:50Z
2021-12-15T23:37:25Z,42.805,6.029,13.2994,4.60022,2470.297,2021-12-16T01:38:53Z
2021-12-15T23:40:28Z,42.805,6.029,13.2996,4.60021,2470.32,2021-12-16T01:41:56Z
2021-12-15T23:43:31Z,42.805,6.029,13.2994,4.60021,2470.287,2021-12-16T01:45:00Z